NKS2PC KRDU-KIND

Flight info

Callsign NKS2PC
Flight time N/A
Altitude 32000
Route LWOOD5 DANCO ZIEBR HAGAL GIIBS4
Aircraft A321/M-SDE3FGHIRWY/LB1

Departure

Time 2026-05-07 02:26
Airport Raleigh-Durham International Airport (KRDU)

Arrival

Time N/A
Airport Indianapolis International Airport (KIND)
Time Latitude Longitude Altitude Speed Heading
2026-05-07 01:57 35.87534 -78.79555 385 ft 0 kts 335°
2026-05-07 02:08 35.87526 -78.79550 385 ft 2 kts 328°
2026-05-07 02:08 35.87513 -78.79538 385 ft 2 kts 311°
2026-05-07 02:09 35.87506 -78.79520 386 ft 2 kts 268°
2026-05-07 02:09 35.87511 -78.79501 387 ft 2 kts 235°
2026-05-07 02:09 35.87515 -78.79495 387 ft 0 kts 229°
2026-05-07 02:12 35.87512 -78.79499 387 ft 2 kts 229°
2026-05-07 02:12 35.87501 -78.79516 386 ft 0 kts 230°
2026-05-07 02:12 35.87490 -78.79526 386 ft 7 kts 220°
2026-05-07 02:13 35.87446 -78.79577 384 ft 9 kts 225°
2026-05-07 02:13 35.87412 -78.79644 383 ft 10 kts 272°
2026-05-07 02:13 35.87452 -78.79714 381 ft 11 kts 317°
2026-05-07 02:13 35.87510 -78.79783 380 ft 12 kts 315°
2026-05-07 02:14 35.87548 -78.79823 380 ft 5 kts 326°
2026-05-07 02:14 35.87570 -78.79835 381 ft 3 kts 352°
2026-05-07 02:14 35.87592 -78.79826 381 ft 6 kts 34°
2026-05-07 02:14 35.87643 -78.79762 382 ft 13 kts 45°
2026-05-07 02:15 35.87700 -78.79692 385 ft 10 kts 45°
2026-05-07 02:15 35.87754 -78.79626 387 ft 12 kts 44°
2026-05-07 02:15 35.87813 -78.79552 389 ft 12 kts 45°
2026-05-07 02:15 35.87873 -78.79480 391 ft 11 kts 45°
2026-05-07 02:16 35.87919 -78.79420 394 ft 8 kts 47°
2026-05-07 02:16 35.87942 -78.79375 394 ft 4 kts 100°
2026-05-07 02:16 35.87929 -78.79313 393 ft 9 kts 83°
2026-05-07 02:16 35.87965 -78.79263 393 ft 7 kts 45°
2026-05-07 02:17 35.88002 -78.79216 393 ft 9 kts 46°
2026-05-07 02:17 35.88053 -78.79153 391 ft 12 kts 45°
2026-05-07 02:17 35.88118 -78.79072 395 ft 15 kts 51°
2026-05-07 02:17 35.88197 -78.78972 391 ft 18 kts 48°
2026-05-07 02:18 35.88278 -78.78870 395 ft 15 kts 45°
2026-05-07 02:18 35.88350 -78.78781 398 ft 14 kts 46°
2026-05-07 02:18 35.88412 -78.78703 399 ft 11 kts 45°
2026-05-07 02:18 35.88470 -78.78633 403 ft 12 kts 44°
2026-05-07 02:19 35.88536 -78.78552 405 ft 15 kts 45°
2026-05-07 02:19 35.88614 -78.78453 404 ft 16 kts 45°
2026-05-07 02:19 35.88688 -78.78363 407 ft 14 kts 44°
2026-05-07 02:19 35.88767 -78.78265 409 ft 17 kts 45°
2026-05-07 02:20 35.88846 -78.78168 407 ft 16 kts 44°
2026-05-07 02:20 35.88924 -78.78072 409 ft 17 kts 44°
2026-05-07 02:20 35.88988 -78.77957 410 ft 16 kts 72°
2026-05-07 02:20 35.89037 -78.77853 411 ft 13 kts 45°
2026-05-07 02:21 35.89093 -78.77786 412 ft 10 kts 45°
2026-05-07 02:21 35.89137 -78.77730 416 ft 8 kts 46°
2026-05-07 02:21 35.89175 -78.77683 415 ft 8 kts 45°
2026-05-07 02:21 35.89210 -78.77652 419 ft 5 kts 18°
2026-05-07 02:22 35.89242 -78.77655 417 ft 4 kts 327°
2026-05-07 02:22 35.89281 -78.77702 418 ft 10 kts 315°
2026-05-07 02:22 35.89292 -78.77716 419 ft 0 kts 315°
2026-05-07 02:24 35.89306 -78.77733 416 ft 9 kts 315°
2026-05-07 02:24 35.89358 -78.77797 414 ft 11 kts 312°
2026-05-07 02:24 35.89341 -78.77867 418 ft 10 kts 211°
2026-05-07 02:24 35.89318 -78.77888 416 ft 4 kts 224°
2026-05-07 02:25 35.89311 -78.77895 414 ft 0 kts 225°
2026-05-07 02:25 35.89310 -78.77897 413 ft 1 kts 225°
2026-05-07 02:25 35.89229 -78.77997 413 ft 45 kts 225°
2026-05-07 02:25 35.88821 -78.78498 412 ft 121 kts 225°
2026-05-07 02:26 35.88066 -78.79423 599 ft 169 kts 224°
2026-05-07 02:26 35.87195 -78.80445 1366 ft 174 kts 226°
2026-05-07 02:26 35.86375 -78.81554 2245 ft 174 kts 228°
2026-05-07 02:26 35.85572 -78.82636 3097 ft 168 kts 229°
2026-05-07 02:27 35.84842 -78.83751 3727 ft 175 kts 246°
2026-05-07 02:27 35.84546 -78.85337 4020 ft 203 kts 258°
2026-05-07 02:27 35.84615 -78.87184 4369 ft 232 kts 282°
2026-05-07 02:27 35.85269 -78.89044 4990 ft 245 kts 292°
2026-05-07 02:28 35.86119 -78.90887 5619 ft 250 kts 295°
2026-05-07 02:28 35.87027 -78.92732 5933 ft 253 kts 296°
2026-05-07 02:28 35.87958 -78.94586 6228 ft 256 kts 297°
2026-05-07 02:28 35.88901 -78.96457 6951 ft 257 kts 297°
2026-05-07 02:29 35.89847 -78.98331 7790 ft 258 kts 297°
2026-05-07 02:29 35.90797 -79.00216 8582 ft 260 kts 297°
2026-05-07 02:29 35.91757 -79.02121 9367 ft 263 kts 297°
2026-05-07 02:29 35.92727 -79.04049 10098 ft 266 kts 297°
2026-05-07 02:30 35.93730 -79.06049 10508 ft 284 kts 297°
2026-05-07 02:30 35.94801 -79.08186 10816 ft 303 kts 297°
2026-05-07 02:30 35.95944 -79.10464 11087 ft 320 kts 297°
2026-05-07 02:30 35.97145 -79.12855 11362 ft 335 kts 297°
2026-05-07 02:31 35.98378 -79.15307 11723 ft 345 kts 298°
2026-05-07 02:31 35.99652 -79.17840 11943 ft 349 kts 298°
2026-05-07 02:31 36.00935 -79.20390 11974 ft 349 kts 298°
2026-05-07 02:31 36.02216 -79.22940 11974 ft 350 kts 297°
2026-05-07 02:32 36.03405 -79.25568 12179 ft 351 kts 292°
2026-05-07 02:32 36.04422 -79.28309 12794 ft 351 kts 290°
2026-05-07 02:32 36.05404 -79.31076 13439 ft 353 kts 290°
2026-05-07 02:32 36.06424 -79.33837 14045 ft 357 kts 294°
2026-05-07 02:33 36.07853 -79.36379 14684 ft 364 kts 308°
2026-05-07 02:33 36.09829 -79.38391 15350 ft 372 kts 320°
2026-05-07 02:33 36.12040 -79.40077 16009 ft 375 kts 323°
2026-05-07 02:33 36.14271 -79.41685 16643 ft 376 kts 323°
2026-05-07 02:34 36.16536 -79.43314 17255 ft 377 kts 322°
2026-05-07 02:34 36.18808 -79.44956 17865 ft 378 kts 322°
2026-05-07 02:34 36.21082 -79.46607 18438 ft 379 kts 322°
2026-05-07 02:34 36.23359 -79.48265 18925 ft 381 kts 321°
2026-05-07 02:35 36.25639 -79.49930 19389 ft 383 kts 321°
2026-05-07 02:35 36.27945 -79.51617 19858 ft 386 kts 321°
2026-05-07 02:35 36.30268 -79.53319 20339 ft 388 kts 321°
2026-05-07 02:35 36.32599 -79.55027 20819 ft 391 kts 321°
2026-05-07 02:36 36.34946 -79.56748 21299 ft 393 kts 321°
2026-05-07 02:36 36.37306 -79.58480 21755 ft 395 kts 321°
2026-05-07 02:36 36.39679 -79.60223 21940 ft 396 kts 321°
2026-05-07 02:36 36.42053 -79.61966 21957 ft 397 kts 321°
2026-05-07 02:37 36.44392 -79.63686 21958 ft 397 kts 321°
2026-05-07 02:37 36.46783 -79.65445 21963 ft 398 kts 321°
2026-05-07 02:37 36.49162 -79.67197 21966 ft 398 kts 321°
2026-05-07 02:37 36.51543 -79.68951 21966 ft 398 kts 321°
2026-05-07 02:38 36.53923 -79.70709 21962 ft 397 kts 321°
2026-05-07 02:38 36.56217 -79.72588 21961 ft 392 kts 316°
2026-05-07 02:38 36.58274 -79.74762 21959 ft 385 kts 309°
2026-05-07 02:38 36.60037 -79.77240 21960 ft 379 kts 301°
2026-05-07 02:39 36.61546 -79.79913 21967 ft 377 kts 298°
2026-05-07 02:39 36.62979 -79.82639 21968 ft 377 kts 298°
2026-05-07 02:39 36.64386 -79.85344 22017 ft 378 kts 298°
2026-05-07 02:39 36.65818 -79.88100 22435 ft 380 kts 298°
2026-05-07 02:40 36.67260 -79.90869 22951 ft 382 kts 298°
2026-05-07 02:40 36.68707 -79.93646 23414 ft 384 kts 298°
2026-05-07 02:40 36.70166 -79.96445 23786 ft 387 kts 298°
2026-05-07 02:40 36.71636 -79.99266 24138 ft 389 kts 297°
2026-05-07 02:41 36.73111 -80.02100 24496 ft 391 kts 297°
2026-05-07 02:41 36.74093 -80.03986 24741 ft 391 kts 297°
2026-05-07 02:41 36.75574 -80.06831 25096 ft 393 kts 297°
2026-05-07 02:41 36.77036 -80.09645 25428 ft 394 kts 297°
2026-05-07 02:42 36.78530 -80.12521 25760 ft 396 kts 297°
2026-05-07 02:42 36.80035 -80.15421 26088 ft 398 kts 297°
2026-05-07 02:42 36.81539 -80.18322 26417 ft 400 kts 296°
2026-05-07 02:42 36.83050 -80.21239 26757 ft 401 kts 296°
2026-05-07 02:43 36.84564 -80.24163 27093 ft 402 kts 296°
2026-05-07 02:43 36.86082 -80.27097 27403 ft 403 kts 296°
2026-05-07 02:43 36.87602 -80.30040 27757 ft 403 kts 296°
2026-05-07 02:43 36.89122 -80.32979 28273 ft 400 kts 295°
2026-05-07 02:44 36.90624 -80.35887 28779 ft 396 kts 295°
2026-05-07 02:44 36.92110 -80.38767 29232 ft 394 kts 295°
2026-05-07 02:44 36.93591 -80.41644 29692 ft 392 kts 294°
2026-05-07 02:44 36.95040 -80.44460 30153 ft 389 kts 294°
2026-05-07 02:45 36.96500 -80.47301 30546 ft 387 kts 294°
2026-05-07 02:45 36.97947 -80.50114 31036 ft 382 kts 294°
2026-05-07 02:45 36.99374 -80.52892 31544 ft 377 kts 294°
2026-05-07 02:45 37.00783 -80.55639 31899 ft 375 kts 294°
2026-05-07 02:46 37.03591 -80.61130 32002 ft 373 kts 293°
2026-05-07 02:46 37.06386 -80.66602 32010 ft 373 kts 293°
2026-05-07 02:47 37.08936 -80.72182 32007 ft 364 kts 285°
2026-05-07 02:47 37.10713 -80.78018 32007 ft 360 kts 282°
2026-05-07 02:48 37.12334 -80.83950 31997 ft 359 kts 282°
2026-05-07 02:48 37.13936 -80.89886 31982 ft 360 kts 282°